Time,TemperatureF,DewpointF,PressureIn,WindDirection,WindDirectionDegrees,WindSpeedMPH,WindSpeedGustMPH,Humidity,HourlyPrecipIn,Conditions,Clouds,dailyrainin,SoftwareType,DateUTC
2013-01-01 00:00:00,69.7,65.7,30.18,ESE,112,0.0,4.0,87,0.00,,,-99.99,WeatherLink 5.5,2013-01-01 05:00:00,
2013-01-01 00:10:00,69.8,66.1,30.18,ESE,112,0.0,6.0,88,0.00,,,-99.99,WeatherLink 5.5,2013-01-01 05:10:00,
2013-01-01 00:20:00,70.0,66.0,30.18,ESE,112,1.0,8.0,87,0.00,,,-99.99,WeatherLink 5.5,2013-01-01 05:20:00,
2013-01-01 00:25:00,70.0,65.6,30.17,ESE,112,1.0,5.0,86,0.00,,,-99.99,WeatherLink 5.5,2013-01-01 05:25:00,
2013-01-01 00:35:00,69.9,65.5,30.17,ESE,112,1.0,5.0,86,0.00,,,-99.99,WeatherLink 5.5,2013-01-01 05:35:00,
2013-01-01 00:45:00,69.9,65.2,30.17,ESE,112,0.0,1.0,85,0.00,,,-99.99,WeatherLink 5.5,2013-01-01 05:45:00,
2013-01-01 00:55:00,69.9,65.5,30.17,North,-999,0.0,0.0,86,0.00,,,-99.99,WeatherLink 5.5,2013-01-01 05:55:00,
2013-01-01 01:05:00,69.7,65.7,30.16,North,-999,0.0,0.0,87,0.00,,,-99.99,WeatherLink 5.5,2013-01-01 06:05:00,
2013-01-01 01:10:00,69.5,65.8,30.17,North,-999,0.0,0.0,88,0.00,,,-99.99,WeatherLink 5.5,2013-01-01 06:10:00,
2013-01-01 01:20:00,69.1,66.0,30.16,North,-999,0.0,0.0,90,0.00,,,-99.99,WeatherLink 5.5,2013-01-01 06:20:00,
2013-01-01 01:30:00,69.1,66.4,30.16,ESE,112,1.0,2.0,91,0.00,,,-99.99,WeatherLink 5.5,2013-01-01 06:30:00,
2013-01-01 01:40:00,69.4,66.7,30.16,ESE,112,1.0,5.0,91,0.00,,,-99.99,WeatherLink 5.5,2013-01-01 06:40:00,
2013-01-01 01:50:00,69.6,66.2,30.16,ESE,112,1.0,6.0,89,0.00,,,-99.99,WeatherLink 5.5,2013-01-01 06:50:00,
2013-01-01 02:00:00,69.4,65.4,30.16,ESE,112,1.0,4.0,87,0.00,,,-99.99,WeatherLink 5.5,2013-01-01 07:00:00,
2013-01-01 02:10:00,69.0,65.0,30.16,ESE,112,0.0,3.0,87,0.00,,,-99.99,WeatherLink 5.5,2013-01-01 07:10:00,
2013-01-01 02:15:00,69.1,64.7,30.16,ESE,112,0.0,3.0,86,0.00,,,-99.99,WeatherLink 5.5,2013-01-01 07:15:00,
2013-01-01 02:25:00,69.6,65.6,30.16,ESE,112,0.0,2.0,87,0.00,,,-99.99,WeatherLink 5.5,2013-01-01 07:25:00,
2013-01-01 02:35:00,69.8,65.8,30.16,ESE,112,0.0,2.0,87,0.00,,,-99.99,WeatherLink 5.5,2013-01-01 07:35:00,
2013-01-01 02:45:00,69.9,65.9,30.15,ESE,112,0.0,1.0,87,0.00,,,-99.99,WeatherLink 5.5,2013-01-01 07:45:00,
2013-01-01 02:50:00,69.8,66.1,30.15,ESE,112,0.0,3.0,88,0.00,,,-99.99,WeatherLink 5.5,2013-01-01 07:50:00,
2013-01-01 03:00:00,70.0,66.0,30.15,North,-999,0.0,0.0,87,0.00,,,-99.99,WeatherLink 5.5,2013-01-01 08:00:00,
2013-01-01 03:10:00,69.8,66.4,30.15,North,-999,0.0,0.0,89,0.00,,,-99.99,WeatherLink 5.5,2013-01-01 08:10:00,
2013-01-01 03:20:00,69.6,66.2,30.15,North,-999,0.0,0.0,89,0.00,,,-99.99,WeatherLink 5.5,2013-01-01 08:20:00,
2013-01-01 03:25:00,69.6,66.2,30.15,ESE,112,0.0,3.0,89,0.00,,,-99.99,WeatherLink 5.5,2013-01-01 08:25:00,
2013-01-01 03:35:00,69.3,66.2,30.16,North,-999,0.0,0.0,90,0.00,,,-99.99,WeatherLink 5.5,2013-01-01 08:35:00,
2013-01-01 03:45:00,68.5,65.8,30.15,North,-999,0.0,0.0,91,0.00,,,-99.99,WeatherLink 5.5,2013-01-01 08:45:00,
2013-01-01 03:50:00,68.1,66.0,30.15,North,-999,0.0,0.0,93,0.00,,,-99.99,WeatherLink 5.5,2013-01-01 08:50:00,
2013-01-01 04:00:00,67.3,66.1,30.15,North,-999,0.0,0.0,96,0.00,,,-99.99,WeatherLink 5.5,2013-01-01 09:00:00,
2013-01-01 04:10:00,66.5,66.5,30.15,North,-999,0.0,0.0,100,0.00,,,-99.99,WeatherLink 5.5,2013-01-01 09:10:00,
2013-01-01 04:20:00,65.9,65.9,30.15,North,-999,0.0,0.0,100,0.00,,,-99.99,WeatherLink 5.5,2013-01-01 09:20:00,
2013-01-01 04:30:00,65.6,65.6,30.14,ESE,112,0.0,2.0,100,0.00,,,-99.99,WeatherLink 5.5,2013-01-01 09:30:00,
2013-01-01 04:40:00,65.8,65.8,30.13,ESE,112,0.0,3.0,100,0.00,,,-99.99,WeatherLink 5.5,2013-01-01 09:40:00,
2013-01-01 04:50:00,66.2,66.2,30.13,ESE,112,0.0,4.0,100,0.00,,,-99.99,WeatherLink 5.5,2013-01-01 09:50:00,
2013-01-01 05:00:00,66.8,66.8,30.13,North,-999,0.0,0.0,100,0.00,,,-99.99,WeatherLink 5.5,2013-01-01 10:00:00,
2013-01-01 05:05:00,66.9,66.6,30.13,North,-999,0.0,0.0,99,0.00,,,-99.99,WeatherLink 5.5,2013-01-01 10:05:00,
2013-01-01 05:15:00,66.5,66.5,30.13,North,-999,0.0,0.0,100,0.00,,,-99.99,WeatherLink 5.5,2013-01-01 10:15:00,
2013-01-01 05:25:00,66.2,66.2,30.13,North,-999,0.0,0.0,100,0.00,,,-99.99,WeatherLink 5.5,2013-01-01 10:25:00,
2013-01-01 05:30:00,66.0,66.0,30.12,North,-999,0.0,0.0,100,0.00,,,-99.99,WeatherLink 5.5,2013-01-01 10:30:00,
2013-01-01 05:40:00,65.6,65.6,30.13,North,-999,0.0,0.0,100,0.00,,,-99.99,WeatherLink 5.5,2013-01-01 10:40:00,
2013-01-01 05:45:00,65.6,65.6,30.12,North,-999,0.0,0.0,100,0.00,,,-99.99,WeatherLink 5.5,2013-01-01 10:45:00,
2013-01-01 05:55:00,65.8,65.8,30.12,North,-999,0.0,0.0,100,0.00,,,-99.99,WeatherLink 5.5,2013-01-01 10:55:00,
2013-01-01 06:05:00,66.0,66.0,30.12,North,-999,0.0,0.0,100,0.00,,,-99.99,WeatherLink 5.5,2013-01-01 11:05:00,
2013-01-01 06:10:00,66.1,66.1,30.12,North,-999,0.0,0.0,100,0.00,,,-99.99,WeatherLink 5.5,2013-01-01 11:10:00,
2013-01-01 06:20:00,66.4,66.4,30.12,ESE,112,0.0,3.0,100,0.00,,,-99.99,WeatherLink 5.5,2013-01-01 11:20:00,
2013-01-01 06:30:00,67.3,-99.9,30.11,ESE,112,1.0,5.0,-999,0.00,,,-99.99,WeatherLink 5.5,2013-01-01 11:30:00,
2013-01-01 06:40:00,68.1,68.1,30.11,ESE,112,2.0,6.0,100,0.00,,,-99.99,WeatherLink 5.5,2013-01-01 11:40:00,
2013-01-01 06:50:00,68.5,68.5,30.11,ESE,112,1.0,6.0,100,0.00,,,-99.99,WeatherLink 5.5,2013-01-01 11:50:00,
2013-01-01 07:00:00,68.5,67.6,30.12,ESE,112,1.0,4.0,97,0.00,,,-99.99,WeatherLink 5.5,2013-01-01 12:00:00,
2013-01-01 07:10:00,68.0,67.1,30.11,ESE,112,0.0,4.0,97,0.00,,,-99.99,WeatherLink 5.5,2013-01-01 12:10:00,
2013-01-01 07:20:00,67.8,67.5,30.12,ESE,112,0.0,4.0,99,0.00,,,-99.99,WeatherLink 5.5,2013-01-01 12:20:00,
2013-01-01 07:30:00,67.6,67.6,30.12,ESE,112,1.0,4.0,100,0.00,,,-99.99,WeatherLink 5.5,2013-01-01 12:30:00,
2013-01-01 07:40:00,67.8,67.8,30.12,ESE,112,0.0,2.0,100,0.00,,,-99.99,WeatherLink 5.5,2013-01-01 12:40:00,
2013-01-01 07:45:00,68.0,68.0,30.13,ESE,112,0.0,4.0,100,0.00,,,-99.99,WeatherLink 5.5,2013-01-01 12:45:00,
2013-01-01 07:55:00,68.4,68.4,30.12,ESE,112,0.0,4.0,100,0.00,,,-99.99,WeatherLink 5.5,2013-01-01 12:55:00,
2013-01-01 08:05:00,68.7,68.7,30.12,ESE,112,1.0,5.0,100,0.00,,,-99.99,WeatherLink 5.5,2013-01-01 13:05:00,
2013-01-01 08:15:00,69.3,69.3,30.12,ESE,112,2.0,6.0,100,0.00,,,-99.99,WeatherLink 5.5,2013-01-01 13:15:00,
2013-01-01 08:25:00,70.3,68.5,30.12,SE,135,1.0,6.0,94,0.00,,,-99.99,WeatherLink 5.5,2013-01-01 13:25:00,
2013-01-01 08:30:00,71.0,67.3,30.13,ESE,112,3.0,10.0,88,0.00,,,-99.99,WeatherLink 5.5,2013-01-01 13:30:00,
2013-01-01 08:35:00,70.9,67.5,30.14,ESE,112,0.0,4.0,89,0.00,,,-99.99,WeatherLink 5.5,2013-01-01 13:35:00,
2013-01-01 08:40:00,70.8,67.4,30.14,ESE,112,1.0,7.0,89,0.00,,,-99.99,WeatherLink 5.5,2013-01-01 13:40:00,
2013-01-01 08:45:00,71.3,67.6,30.14,ESE,112,2.0,9.0,88,0.00,,,-99.99,WeatherLink 5.5,2013-01-01 13:45:00,
2013-01-01 08:50:00,71.6,67.5,30.14,ESE,112,3.0,10.0,87,0.00,,,-99.99,WeatherLink 5.5,2013-01-01 13:50:00,
2013-01-01 08:55:00,71.6,67.5,30.14,ESE,112,2.0,8.0,87,0.00,,,-99.99,WeatherLink 5.5,2013-01-01 13:55:00,
2013-01-01 09:00:00,71.6,67.2,30.14,ESE,112,4.0,14.0,86,0.00,,,-99.99,WeatherLink 5.5,2013-01-01 14:00:00,
2013-01-01 09:05:00,71.8,67.4,30.14,SE,135,3.0,10.0,86,0.00,,,-99.99,WeatherLink 5.5,2013-01-01 14:05:00,
2013-01-01 09:10:00,72.1,68.0,30.14,SE,135,5.0,15.0,87,0.00,,,-99.99,WeatherLink 5.5,2013-01-01 14:10:00,
2013-01-01 09:15:00,72.4,68.0,30.14,SE,135,3.0,8.0,86,0.00,,,-99.99,WeatherLink 5.5,2013-01-01 14:15:00,
2013-01-01 09:20:00,72.8,68.0,30.14,SE,135,4.0,12.0,85,0.00,,,-99.99,WeatherLink 5.5,2013-01-01 14:20:00,
2013-01-01 09:25:00,73.1,68.0,30.14,SE,135,4.0,12.0,84,0.00,,,-99.99,WeatherLink 5.5,2013-01-01 14:25:00,
2013-01-01 09:30:00,73.3,67.8,30.14,SE,135,4.0,12.0,83,0.00,,,-99.99,WeatherLink 5.5,2013-01-01 14:30:00,
2013-01-01 09:35:00,73.6,68.5,30.14,SE,135,2.0,8.0,84,0.00,,,-99.99,WeatherLink 5.5,2013-01-01 14:35:00,
2013-01-01 09:40:00,74.1,68.6,30.14,SE,135,3.0,9.0,83,0.00,,,-99.99,WeatherLink 5.5,2013-01-01 14:40:00,
2013-01-01 09:45:00,74.4,68.2,30.14,SE,135,4.0,12.0,81,0.00,,,-99.99,WeatherLink 5.5,2013-01-01 14:45:00,
2013-01-01 09:50:00,74.3,68.4,30.14,SE,135,4.0,10.0,82,0.00,,,-99.99,WeatherLink 5.5,2013-01-01 14:50:00,
2013-01-01 09:55:00,74.6,68.0,30.14,SE,135,6.0,15.0,80,0.00,,,-99.99,WeatherLink 5.5,2013-01-01 14:55:00,
2013-01-01 10:00:00,74.8,67.8,30.14,SE,135,5.0,14.0,79,0.00,,,-99.99,WeatherLink 5.5,2013-01-01 15:00:00,
2013-01-01 10:05:00,75.0,67.7,30.14,SSE,157,7.0,17.0,78,0.00,,,-99.99,WeatherLink 5.5,2013-01-01 15:05:00,
2013-01-01 10:10:00,75.3,68.0,30.14,SE,135,4.0,14.0,78,0.00,,,-99.99,WeatherLink 5.5,2013-01-01 15:10:00,
2013-01-01 10:15:00,75.6,68.3,30.14,SE,135,6.0,13.0,78,0.00,,,-99.99,WeatherLink 5.5,2013-01-01 15:15:00,
2013-01-01 10:20:00,75.7,68.0,30.13,SE,135,6.0,15.0,77,0.00,,,-99.99,WeatherLink 5.5,2013-01-01 15:20:00,
2013-01-01 10:25:00,75.8,68.1,30.13,ESE,112,6.0,13.0,77,0.00,,,-99.99,WeatherLink 5.5,2013-01-01 15:25:00,
2013-01-01 10:30:00,76.0,68.3,30.13,SE,135,6.0,16.0,77,0.00,,,-99.99,WeatherLink 5.5,2013-01-01 15:30:00,
2013-01-01 10:35:00,76.1,68.4,30.13,SE,135,6.0,14.0,77,0.00,,,-99.99,WeatherLink 5.5,2013-01-01 15:35:00,
2013-01-01 10:40:00,76.1,68.4,30.12,SE,135,7.0,15.0,77,0.00,,,-99.99,WeatherLink 5.5,2013-01-01 15:40:00,
2013-01-01 10:45:00,76.4,68.3,30.12,SE,135,5.0,13.0,76,0.00,,,-99.99,WeatherLink 5.5,2013-01-01 15:45:00,
2013-01-01 10:50:00,76.7,68.2,30.12,SE,135,7.0,18.0,75,0.00,,,-99.99,WeatherLink 5.5,2013-01-01 15:50:00,
2013-01-01 10:55:00,76.8,67.9,30.13,ESE,112,7.0,16.0,74,0.00,,,-99.99,WeatherLink 5.5,2013-01-01 15:55:00,
2013-01-01 11:00:00,77.1,67.8,30.12,SE,135,7.0,15.0,73,0.00,,,-99.99,WeatherLink 5.5,2013-01-01 16:00:00,
2013-01-01 11:10:00,77.3,68.4,30.13,SSE,157,8.0,16.0,74,0.00,,,-99.99,WeatherLink 5.5,2013-01-01 16:10:00,
2013-01-01 11:20:00,77.0,69.2,30.13,SE,135,6.0,13.0,77,0.00,,,-99.99,WeatherLink 5.5,2013-01-01 16:20:00,
2013-01-01 11:30:00,77.5,68.6,30.13,SSE,157,5.0,10.0,74,0.00,,,-99.99,WeatherLink 5.5,2013-01-01 16:30:00,
2013-01-01 11:40:00,78.6,68.8,30.12,SE,135,8.0,16.0,72,0.00,,,-99.99,WeatherLink 5.5,2013-01-01 16:40:00,
2013-01-01 11:50:00,78.4,67.8,30.12,SE,135,5.0,14.0,70,0.00,,,-99.99,WeatherLink 5.5,2013-01-01 16:50:00,
2013-01-01 12:00:00,78.1,67.5,30.11,SE,135,6.0,14.0,70,0.00,,,-99.99,WeatherLink 5.5,2013-01-01 17:00:00,
2013-01-01 12:10:00,78.5,67.1,30.10,SSE,157,6.0,15.0,68,0.00,,,-99.99,WeatherLink 5.5,2013-01-01 17:10:00,
2013-01-01 12:15:00,78.8,67.3,30.10,SE,135,5.0,15.0,68,0.00,,,-99.99,WeatherLink 5.5,2013-01-01 17:15:00,
2013-01-01 12:25:00,78.9,67.0,30.09,ESE,112,6.0,14.0,67,0.00,,,-99.99,WeatherLink 5.5,2013-01-01 17:25:00,
2013-01-01 12:35:00,78.9,67.0,30.08,SSE,157,6.0,14.0,67,0.00,,,-99.99,WeatherLink 5.5,2013-01-01 17:35:00,
2013-01-01 12:40:00,78.8,67.3,30.08,SSE,157,5.0,11.0,68,0.00,,,-99.99,WeatherLink 5.5,2013-01-01 17:40:00,
2013-01-01 12:50:00,78.7,66.4,30.07,SSE,157,8.0,16.0,66,0.00,,,-99.99,WeatherLink 5.5,2013-01-01 17:50:00,
2013-01-01 13:00:00,78.7,60.7,30.07,South,180,7.0,17.0,54,0.00,,,-99.99,WeatherLink 5.5,2013-01-01 18:00:00,
2013-01-01 13:05:00,78.9,60.8,30.07,SSE,157,7.0,15.0,54,0.00,,,-99.99,WeatherLink 5.5,2013-01-01 18:05:00,
2013-01-01 13:15:00,79.1,60.0,30.07,SSE,157,8.0,17.0,52,0.00,,,-99.99,WeatherLink 5.5,2013-01-01 18:15:00,
2013-01-01 13:20:00,79.2,60.1,30.07,SSE,157,9.0,15.0,52,0.00,,,-99.99,WeatherLink 5.5,2013-01-01 18:20:00,
2013-01-01 13:30:00,78.9,59.8,30.06,SSE,157,7.0,13.0,52,0.00,,,-99.99,WeatherLink 5.5,2013-01-01 18:30:00,
2013-01-01 13:35:00,79.1,60.0,30.06,SSE,157,7.0,13.0,52,0.00,,,-99.99,WeatherLink 5.5,2013-01-01 18:35:00,
2013-01-01 13:45:00,79.1,60.5,30.06,SSE,157,5.0,15.0,53,0.00,,,-99.99,WeatherLink 5.5,2013-01-01 18:45:00,
2013-01-01 13:55:00,78.8,60.2,30.05,SE,135,6.0,14.0,53,0.00,,,-99.99,WeatherLink 5.5,2013-01-01 18:55:00,
2013-01-01 14:00:00,78.6,59.5,30.05,SE,135,4.0,13.0,52,0.00,,,-99.99,WeatherLink 5.5,2013-01-01 19:00:00,
2013-01-01 14:10:00,78.6,59.5,30.05,SSE,157,6.0,13.0,52,0.00,,,-99.99,WeatherLink 5.5,2013-01-01 19:10:00,
2013-01-01 14:15:00,78.6,59.0,30.05,SSE,157,6.0,16.0,51,0.00,,,-99.99,WeatherLink 5.5,2013-01-01 19:15:00,
2013-01-01 14:25:00,79.1,59.4,30.05,SE,135,5.0,12.0,51,0.00,,,-99.99,WeatherLink 5.5,2013-01-01 19:25:00,
2013-01-01 14:35:00,78.6,59.5,30.05,SSE,157,5.0,11.0,52,0.00,,,-99.99,WeatherLink 5.5,2013-01-01 19:35:00,
2013-01-01 14:45:00,78.2,59.1,30.04,SE,135,5.0,12.0,52,0.00,,,-99.99,WeatherLink 5.5,2013-01-01 19:45:00,
2013-01-01 14:55:00,78.4,58.8,30.04,SE,135,5.0,12.0,51,0.00,,,-99.99,WeatherLink 5.5,2013-01-01 19:55:00,
2013-01-01 15:05:00,78.3,59.2,30.04,South,180,4.0,10.0,52,0.00,,,-99.99,WeatherLink 5.5,2013-01-01 20:05:00,
2013-01-01 15:15:00,78.5,58.3,30.04,South,180,7.0,12.0,50,0.00,,,-99.99,WeatherLink 5.5,2013-01-01 20:15:00,
2013-01-01 15:25:00,78.2,58.6,30.04,South,180,4.0,14.0,51,0.00,,,-99.99,WeatherLink 5.5,2013-01-01 20:25:00,
2013-01-01 15:35:00,77.9,59.4,30.04,SSE,157,3.0,10.0,53,0.00,,,-99.99,WeatherLink 5.5,2013-01-01 20:35:00,
2013-01-01 15:40:00,77.9,59.4,30.04,SE,135,6.0,12.0,53,0.00,,,-99.99,WeatherLink 5.5,2013-01-01 20:40:00,
2013-01-01 15:50:00,78.4,59.9,30.04,SSE,157,6.0,14.0,53,0.00,,,-99.99,WeatherLink 5.5,2013-01-01 20:50:00,
2013-01-01 15:55:00,78.5,59.9,30.03,SSE,157,5.0,12.0,53,0.00,,,-99.99,WeatherLink 5.5,2013-01-01 20:55:00,
2013-01-01 16:05:00,77.9,59.9,30.04,SSE,157,6.0,11.0,54,0.00,,,-99.99,WeatherLink 5.5,2013-01-01 21:05:00,
2013-01-01 16:15:00,77.1,59.7,30.04,SSE,157,3.0,10.0,55,0.00,,,-99.99,WeatherLink 5.5,2013-01-01 21:15:00,
2013-01-01 16:20:00,77.2,59.8,30.04,SE,135,4.0,9.0,55,0.00,,,-99.99,WeatherLink 5.5,2013-01-01 21:20:00,
2013-01-01 16:30:00,77.2,59.3,30.04,SSE,157,5.0,10.0,54,0.00,,,-99.99,WeatherLink 5.5,2013-01-01 21:30:00,
2013-01-01 16:40:00,76.3,59.4,30.04,SSE,157,5.0,10.0,56,0.00,,,-99.99,WeatherLink 5.5,2013-01-01 21:40:00,
2013-01-01 16:50:00,76.0,60.2,30.04,SSE,157,5.0,11.0,58,0.00,,,-99.99,WeatherLink 5.5,2013-01-01 21:50:00,
2013-01-01 17:00:00,75.9,61.0,30.04,SSE,157,2.0,9.0,60,0.00,,,-99.99,WeatherLink 5.5,2013-01-01 22:00:00,
2013-01-01 17:10:00,75.7,61.8,30.04,SE,135,2.0,8.0,62,0.00,,,-99.99,WeatherLink 5.5,2013-01-01 22:10:00,
2013-01-01 17:20:00,75.5,62.5,30.04,SE,135,3.0,9.0,64,0.00,,,-99.99,WeatherLink 5.5,2013-01-01 22:20:00,
2013-01-01 17:30:00,75.2,63.5,30.04,SE,135,1.0,4.0,67,0.00,,,-99.99,WeatherLink 5.5,2013-01-01 22:30:00,
2013-01-01 17:40:00,75.0,63.7,30.04,SE,135,1.0,7.0,68,0.00,,,-99.99,WeatherLink 5.5,2013-01-01 22:40:00,
2013-01-01 17:45:00,74.9,63.6,30.04,SE,135,1.0,5.0,68,0.00,,,-99.99,WeatherLink 5.5,2013-01-01 22:45:00,
2013-01-01 17:55:00,74.7,63.9,30.04,SE,135,1.0,6.0,69,0.00,,,-99.99,WeatherLink 5.5,2013-01-01 22:55:00,
2013-01-01 18:05:00,74.5,64.1,30.04,SE,135,1.0,7.0,70,0.00,,,-99.99,WeatherLink 5.5,2013-01-01 23:05:00,
2013-01-01 18:15:00,74.3,63.5,30.05,SE,135,0.0,4.0,69,0.00,,,-99.99,WeatherLink 5.5,2013-01-01 23:15:00,
2013-01-01 18:25:00,74.2,63.4,30.05,SE,135,0.0,4.0,69,0.00,,,-99.99,WeatherLink 5.5,2013-01-01 23:25:00,
2013-01-01 18:35:00,74.0,63.6,30.04,SE,135,0.0,3.0,70,0.00,,,-99.99,WeatherLink 5.5,2013-01-01 23:35:00,
2013-01-01 18:45:00,73.9,62.7,30.05,SE,135,0.0,4.0,68,0.00,,,-99.99,WeatherLink 5.5,2013-01-01 23:45:00,
2013-01-01 18:55:00,73.9,62.7,30.05,SE,135,0.0,1.0,68,0.00,,,-99.99,WeatherLink 5.5,2013-01-01 23:55:00,
2013-01-01 19:00:00,73.9,62.2,30.05,SE,135,0.0,2.0,67,0.00,,,-99.99,WeatherLink 5.5,2013-01-02 00:00:00,
2013-01-01 19:10:00,74.1,62.0,30.05,SE,135,1.0,6.0,66,0.00,,,-99.99,WeatherLink 5.5,2013-01-02 00:10:00,
2013-01-01 19:20:00,74.1,62.9,30.05,SE,135,0.0,4.0,68,0.00,,,-99.99,WeatherLink 5.5,2013-01-02 00:20:00,
2013-01-01 19:25:00,74.0,62.8,30.05,North,-999,0.0,0.0,68,0.00,,,-99.99,WeatherLink 5.5,2013-01-02 00:25:00,
2013-01-01 19:30:00,73.7,62.5,30.06,North,-999,0.0,0.0,68,0.00,,,-99.99,WeatherLink 5.5,2013-01-02 00:30:00,
2013-01-01 19:35:00,73.6,63.2,30.05,North,-999,0.0,0.0,70,0.00,,,-99.99,WeatherLink 5.5,2013-01-02 00:35:00,
2013-01-01 19:40:00,73.5,63.5,30.05,North,-999,0.0,0.0,71,0.00,,,-99.99,WeatherLink 5.5,2013-01-02 00:40:00,
2013-01-01 19:45:00,73.4,63.4,30.05,SE,135,0.0,1.0,71,0.00,,,-99.99,WeatherLink 5.5,2013-01-02 00:45:00,
2013-01-01 19:50:00,73.3,63.7,30.06,North,-999,0.0,0.0,72,0.00,,,-99.99,WeatherLink 5.5,2013-01-02 00:50:00,
2013-01-01 19:55:00,73.2,63.6,30.06,SE,135,0.0,4.0,72,0.00,,,-99.99,WeatherLink 5.5,2013-01-02 00:55:00,
2013-01-01 20:00:00,73.1,63.5,30.06,North,-999,0.0,0.0,72,0.00,,,-99.99,WeatherLink 5.5,2013-01-02 01:00:00,
2013-01-01 20:05:00,72.8,63.2,30.06,SE,135,0.0,1.0,72,0.00,,,-99.99,WeatherLink 5.5,2013-01-02 01:05:00,
2013-01-01 20:10:00,72.4,62.9,30.06,North,-999,0.0,0.0,72,0.00,,,-99.99,WeatherLink 5.5,2013-01-02 01:10:00,
2013-01-01 20:15:00,72.0,63.3,30.06,North,-999,0.0,0.0,74,0.00,,,-99.99,WeatherLink 5.5,2013-01-02 01:15:00,
2013-01-01 20:20:00,71.6,63.6,30.06,North,-999,0.0,0.0,76,0.00,,,-99.99,WeatherLink 5.5,2013-01-02 01:20:00,
2013-01-01 20:25:00,71.2,63.6,30.06,North,-999,0.0,0.0,77,0.00,,,-99.99,WeatherLink 5.5,2013-01-02 01:25:00,
2013-01-01 20:30:00,70.8,64.0,30.05,North,-999,0.0,0.0,79,0.00,,,-99.99,WeatherLink 5.5,2013-01-02 01:30:00,
2013-01-01 20:35:00,70.4,64.3,30.06,North,-999,0.0,0.0,81,0.00,,,-99.99,WeatherLink 5.5,2013-01-02 01:35:00,
2013-01-01 20:40:00,69.9,64.5,30.06,North,-999,0.0,0.0,83,0.00,,,-99.99,WeatherLink 5.5,2013-01-02 01:40:00,
2013-01-01 20:45:00,69.5,64.8,30.06,North,-999,0.0,0.0,85,0.00,,,-99.99,WeatherLink 5.5,2013-01-02 01:45:00,
2013-01-01 20:50:00,69.1,65.7,30.06,North,-999,0.0,0.0,89,0.00,,,-99.99,WeatherLink 5.5,2013-01-02 01:50:00,
2013-01-01 20:55:00,68.8,66.4,30.06,North,-999,0.0,0.0,92,0.00,,,-99.99,WeatherLink 5.5,2013-01-02 01:55:00,
2013-01-01 21:00:00,68.5,66.4,30.06,North,-999,0.0,0.0,93,0.00,,,-99.99,WeatherLink 5.5,2013-01-02 02:00:00,
2013-01-01 21:05:00,68.2,67.0,30.06,North,-999,0.0,0.0,96,0.00,,,-99.99,WeatherLink 5.5,2013-01-02 02:05:00,
2013-01-01 21:10:00,67.9,67.6,30.06,North,-999,0.0,0.0,99,0.00,,,-99.99,WeatherLink 5.5,2013-01-02 02:10:00,
2013-01-01 21:15:00,67.7,67.7,30.06,North,-999,0.0,0.0,100,0.00,,,-99.99,WeatherLink 5.5,2013-01-02 02:15:00,
2013-01-01 21:20:00,67.6,67.6,30.07,North,-999,0.0,0.0,100,0.00,,,-99.99,WeatherLink 5.5,2013-01-02 02:20:00,
2013-01-01 21:25:00,67.7,-99.9,30.07,SE,135,0.0,1.0,-999,0.00,,,-99.99,WeatherLink 5.5,2013-01-02 02:25:00,
2013-01-01 21:30:00,68.0,68.0,30.06,SE,135,1.0,4.0,100,0.00,,,-99.99,WeatherLink 5.5,2013-01-02 02:30:00,
2013-01-01 21:35:00,68.3,68.3,30.07,North,-999,0.0,0.0,100,0.00,,,-99.99,WeatherLink 5.5,2013-01-02 02:35:00,
2013-01-01 21:40:00,68.7,-99.9,30.07,North,-999,0.0,0.0,-999,0.00,,,-99.99,WeatherLink 5.5,2013-01-02 02:40:00,
2013-01-01 21:45:00,69.2,69.2,30.07,North,-999,0.0,0.0,100,0.00,,,-99.99,WeatherLink 5.5,2013-01-02 02:45:00,
2013-01-01 21:50:00,69.5,69.5,30.07,North,-999,0.0,0.0,100,0.00,,,-99.99,WeatherLink 5.5,2013-01-02 02:50:00,
2013-01-01 21:55:00,69.5,69.5,30.07,North,-999,0.0,0.0,100,0.00,,,-99.99,WeatherLink 5.5,2013-01-02 02:55:00,
2013-01-01 22:00:00,69.4,69.4,30.06,North,-999,0.0,0.0,100,0.00,,,-99.99,WeatherLink 5.5,2013-01-02 03:00:00,
2013-01-01 22:05:00,69.2,69.2,30.06,North,-999,0.0,0.0,100,0.00,,,-99.99,WeatherLink 5.5,2013-01-02 03:05:00,
2013-01-01 22:10:00,68.9,68.9,30.06,North,-999,0.0,0.0,100,0.00,,,-99.99,WeatherLink 5.5,2013-01-02 03:10:00,
2013-01-01 22:15:00,68.5,68.5,30.06,North,-999,0.0,0.0,100,0.00,,,-99.99,WeatherLink 5.5,2013-01-02 03:15:00,
2013-01-01 22:20:00,68.2,68.2,30.06,SE,135,0.0,3.0,100,0.00,,,-99.99,WeatherLink 5.5,2013-01-02 03:20:00,
2013-01-01 22:25:00,67.9,67.9,30.06,North,-999,0.0,0.0,100,0.00,,,-99.99,WeatherLink 5.5,2013-01-02 03:25:00,
2013-01-01 22:30:00,67.5,67.5,30.06,North,-999,0.0,0.0,100,0.00,,,-99.99,WeatherLink 5.5,2013-01-02 03:30:00,
2013-01-01 22:35:00,67.2,67.2,30.06,North,-999,0.0,0.0,100,0.00,,,-99.99,WeatherLink 5.5,2013-01-02 03:35:00,
2013-01-01 22:40:00,67.0,67.0,30.06,North,-999,0.0,0.0,100,0.00,,,-99.99,WeatherLink 5.5,2013-01-02 03:40:00,
2013-01-01 22:45:00,66.8,66.8,30.06,North,-999,0.0,0.0,100,0.00,,,-99.99,WeatherLink 5.5,2013-01-02 03:45:00,
2013-01-01 22:50:00,66.6,66.6,30.06,North,-999,0.0,0.0,100,0.00,,,-99.99,WeatherLink 5.5,2013-01-02 03:50:00,
2013-01-01 22:55:00,66.6,66.6,30.06,North,-999,0.0,0.0,100,0.00,,,-99.99,WeatherLink 5.5,2013-01-02 03:55:00,
2013-01-01 23:00:00,66.5,66.5,30.05,North,-999,0.0,0.0,100,0.00,,,-99.99,WeatherLink 5.5,2013-01-02 04:00:00,
2013-01-01 23:05:00,66.2,66.2,30.05,North,-999,0.0,0.0,100,0.00,,,-99.99,WeatherLink 5.5,2013-01-02 04:05:00,
2013-01-01 23:10:00,66.1,66.1,30.05,North,-999,0.0,0.0,100,0.00,,,-99.99,WeatherLink 5.5,2013-01-02 04:10:00,
2013-01-01 23:15:00,65.9,65.9,30.05,North,-999,0.0,0.0,100,0.00,,,-99.99,WeatherLink 5.5,2013-01-02 04:15:00,
2013-01-01 23:20:00,65.6,65.6,30.05,North,-999,0.0,0.0,100,0.00,,,-99.99,WeatherLink 5.5,2013-01-02 04:20:00,
2013-01-01 23:25:00,65.4,65.4,30.05,North,-999,0.0,0.0,100,0.00,,,-99.99,WeatherLink 5.5,2013-01-02 04:25:00,
2013-01-01 23:30:00,65.3,65.3,30.04,North,-999,0.0,0.0,100,0.00,,,-99.99,WeatherLink 5.5,2013-01-02 04:30:00,
2013-01-01 23:35:00,65.1,65.1,30.04,North,-999,0.0,0.0,100,0.00,,,-99.99,WeatherLink 5.5,2013-01-02 04:35:00,
2013-01-01 23:40:00,64.9,64.9,30.04,North,-999,0.0,0.0,100,0.00,,,-99.99,WeatherLink 5.5,2013-01-02 04:40:00,
2013-01-01 23:45:00,64.7,64.7,30.04,North,-999,0.0,0.0,100,0.00,,,-99.99,WeatherLink 5.5,2013-01-02 04:45:00,
2013-01-01 23:50:00,64.4,64.4,30.04,North,-999,0.0,0.0,100,0.00,,,-99.99,WeatherLink 5.5,2013-01-02 04:50:00,
2013-01-01 23:55:00,64.2,64.2,30.04,North,-999,0.0,0.0,100,0.00,,,-99.99,WeatherLink 5.5,2013-01-02 04:55:00,